Location: ????????
(55.3975°N, 38.2844°E)
Time: 20:57:25
(UTC+00:00)

CORIOLIS - Pass Details

Date: 07 December 2025
Orbit: 815 x 836 km, 98.7° (Epoch: 22 April)

Event Time Altitude Azimuth Distance (km) Brightness Sun altitude
Rises 14:31:22 0° 163° (SSE) 3,333 7.4 -12.1°
Reaches altitude 10° 14:33:42 10° 164° (SSE) 2,405 6.6 -12.5°
Maximum altitude 14:39:02 85° 253° (WSW) 827 4.2 -13.2°
Drops below altitude 10° 14:44:25 10° 343° (NNW) 2,423 6.6 -13.9°
Sets 14:46:47 0° 344° (NNW) 3,361 7.3 -14.2°
